Location: Newark
(16.3678°N, 77.8722°E)
Time: 21:55:22
(UTC+00:00)

S-56A Canister/Altair - Pass Details

Date: 16 December 2019
Orbit: 634 x 2498 km, 38.9° (Epoch: 18 January)

Event Time Altitude Azimuth Distance (km) Brightness Sun altitude
Rises 09:03:08 0° 309° (NW) 6,174 12.2 37.7°
Reaches altitude 10° 09:07:24 10° 314° (NW) 5,139 11.8 37.1°
Maximum altitude 09:21:57 60° 31° (NNE) 2,398 10.2 34.6°
Drops below altitude 10° 09:32:47 10° 109° (ESE) 3,943 11.0 32.8°
Sets 09:35:36 0° 113° (ESE) 4,701 11.3 32.3°
